Starlink 11489

operational
NORAD ID: 62271 Int'l Des: 2024-237 Owner: SPXS Country: US Constellation: starlink
LEOCIRCULAR

Starlink 11489について

説明を読み込み中...

リアルタイム位置

3D地球を読み込み中...

次回通過

高度履歴

Altitude vs Time

uPlot chart will show altitude changes over time

軌道要素

1 62271U 24237E 25352.92426700 .00079958 00000-0 62031-3 0 9996
2 62271 43.0000 184.0046 0002650 259.5540 100.5029 15.70850438 60344
Epoch: Dec 18, 2025 • Age: 7 hours

現在のステータス

高度 359.5 km
速度 7.69 km/s
衛星直下点 -19.30°S, 141.44°W
打ち上げ日 Dec 8, 2024
運用期間 1 years
タイプ internet

技術仕様

分類 Payload
質量 960.00 kg
乾燥質量 910.00 kg
総質量 960.00 kg
長さ 0.30 m
直径 4.10 m
スパン 29.00 m
形状 Box + pan
製造者 SPXS
バスタイプ Starlink V2MD
フェーズステータス In Orbit
所有者/国 SPXS/US

大規模コンステレーション

Loading constellations...